Tracking 29489 objects as of 9-Sep-2024
HD Live streaming from Space Station
objects crossing your sky now

CZ-4B DEB

Track CZ-4B DEB now!
10-day predictions


NORAD ID: 46480
Int'l Code: 2020-067C
Perigee: 561.4 km
Apogee: 598.3 km
Inclination: 97.9 °
Period: 96.1 minutes
Semi major axis: 6950 km
RCS: Unknown
Launch date: September 27, 2020
Source: People's Republic of China (PRC)
Launch site: Taiyaun Space Center, China (TSC)

Note: This is SATELLITE DEBRIS
Your satellite tracking list
Your tracking list is empty




NASA's NSSDC Master Catalog

Two Line Element Set (TLE):
1 46480U 20067C   24252.84703067  .00031505  00000-0  26358-2 0  9997
2 46480  97.8814 342.0595 0026583 341.2355  18.7884 14.98121822214131
Source of the keplerian elements: AFSPC